GOES 2 [-]

Last updated on Fri Dec 29 2023 00:02:21 GMT+0000 (Coordinated Universal Time)

1 10061U 77048A 23361.84479672 -.00000165 00000+0 00000+0 0 9997 2 10061 8.5632 301.3815 0011903 29.5543 175.0054 0.99395493 37303
UTC large
Height (km)
Speed (km/s)
/
Latitude / Longitude
Inclination (degrees)
Orbital Period (minutes)
Azimuth
Elevation
Range (km)
Doppler Factor

Next 0 passes for location: London (51.5072 / 0.1276)

Sorry there are no passes over London.